TimeWGT,TemperatureF,Dew PointF,Humidity,Sea Level PressureIn,VisibilityMPH,Wind Direction,Wind SpeedMPH,Gust SpeedMPH,PrecipitationIn,Events,Conditions,WindDirDegrees,DateUTC
12:00 AM,28,25,85,29.35,18,NNE,6.9,,,Snow,Light Snow,30,2013-01-15 03:00:00
12:20 AM,26.6,24.8,93,29.36,4.3,ENE,12.7,-,N/A,Snow,Light Snow,60,2013-01-15 03:20:00
12:50 AM,28.4,24.8,86,29.33,6.2,ENE,13.8,-,N/A,Snow,Light Snow,60,2013-01-15 03:50:00
1:50 AM,28.4,23.0,80,29.33,6.2,ENE,11.5,-,N/A,Snow,Light Snow,70,2013-01-15 04:50:00
2:20 AM,28.4,26.6,93,29.33,-9999.0,SSE,6.9,-,N/A,Snow,Light Snow,150,2013-01-15 05:20:00
2:50 AM,26.6,24.8,93,29.33,-9999.0,SSE,4.6,-,N/A,Snow,Light Snow,160,2013-01-15 05:50:00
3:00 AM,20,18,88,29.31,2,SW,3.5,,,Snow,Light Snow,220,2013-01-15 06:00:00
3:20 AM,26.6,24.8,93,29.30,1.0,SSE,3.5,-,N/A,Snow,Light Snow,160,2013-01-15 06:20:00
3:50 AM,28.4,26.6,93,29.30,-9999.0,SSW,4.6,-,N/A,Snow,Light Snow,200,2013-01-15 06:50:00
4:20 AM,30.2,24.8,80,29.30,1.9,South,11.5,-,N/A,Snow,Light Snow,180,2013-01-15 07:20:00
4:50 AM,28.4,24.8,86,29.30,1.0,South,10.4,-,N/A,Snow,Light Snow,180,2013-01-15 07:50:00
5:20 AM,28.4,26.6,93,29.30,1.0,South,12.7,-,N/A,Snow,Light Snow,190,2013-01-15 08:20:00
5:50 AM,28.4,26.6,93,29.30,0.9,South,8.1,-,N/A,Snow,Light Snow,190,2013-01-15 08:50:00
6:00 AM,29,27,91,29.27,2,SSE,12.7,,,Snow,Light Snow,160,2013-01-15 09:00:00
7:20 AM,26.6,24.8,93,29.24,6.2,East,8.1,-,N/A,,Overcast,90,2013-01-15 10:20:00
7:50 AM,26.6,24.8,93,29.24,6.2,ENE,4.6,-,N/A,,Mostly Cloudy,60,2013-01-15 10:50:00
8:50 AM,28.4,23.0,80,29.24,6.2,ENE,6.9,-,N/A,,Overcast,60,2013-01-15 11:50:00
9:00 AM,28,27,94,29.21,28,North,9.2,,,Snow,Light Snow,10,2013-01-15 12:00:00
9:50 AM,28.4,23.0,80,29.21,6.2,NE,8.1,-,N/A,,Overcast,50,2013-01-15 12:50:00
10:50 AM,30.2,21.2,69,29.18,6.2,ENE,10.4,-,N/A,,Overcast,70,2013-01-15 13:50:00
11:50 AM,30.2,19.4,64,29.15,6.2,ENE,12.7,-,N/A,,Unknown,60,2013-01-15 14:50:00
12:00 PM,29,24,75,29.14,31,NNE,10.4,,,,Clear,30,2013-01-15 15:00:00
12:50 PM,30.2,17.6,60,29.12,6.2,East,11.5,-,N/A,,Mostly Cloudy,80,2013-01-15 15:50:00
2:20 PM,30.2,17.6,60,29.06,6.2,East,12.7,-,N/A,,Mostly Cloudy,80,2013-01-15 17:20:00
2:50 PM,30.2,15.8,55,29.06,6.2,East,15.0,-,N/A,,Mostly Cloudy,80,2013-01-15 17:50:00
3:00 PM,31,16,40,29.03,31,ENE,18.4,,,,Clear,60,2013-01-15 18:00:00
3:50 PM,30.2,15.8,55,29.03,6.2,East,15.0,-,N/A,,Mostly Cloudy,80,2013-01-15 18:50:00
4:50 PM,30.2,15.8,55,29.03,6.2,East,10.4,-,N/A,,Mostly Cloudy,80,2013-01-15 19:50:00
5:50 PM,28.4,15.8,59,29.00,6.2,ENE,9.2,-,N/A,,Mostly Cloudy,70,2013-01-15 20:50:00
6:00 PM,30,15,40,29.00,31,NE,13.8,,,,Overcast,40,2013-01-15 21:00:00
6:20 PM,30.2,14.0,51,29.00,6.2,ENE,12.7,-,N/A,,Mostly Cloudy,70,2013-01-15 21:20:00
6:50 PM,28.4,14.0,55,29.00,6.2,NE,11.5,-,N/A,,Mostly Cloudy,50,2013-01-15 21:50:00
7:20 PM,30.2,14.0,51,29.00,6.2,ENE,11.5,-,N/A,,Overcast,70,2013-01-15 22:20:00
7:50 PM,30.2,14.0,51,29.00,6.2,ENE,11.5,-,N/A,,Mostly Cloudy,60,2013-01-15 22:50:00
8:20 PM,28.4,14.0,55,29.00,6.2,NE,11.5,-,N/A,,Mostly Cloudy,50,2013-01-15 23:20:00
8:50 PM,28.4,14.0,55,28.97,6.2,ENE,11.5,-,N/A,,Mostly Cloudy,70,2013-01-15 23:50:00
9:00 PM,29,16,46,28.98,31,NE,12.7,,,,Overcast,40,2013-01-16 00:00:00
9:20 PM,30.2,15.8,55,29.00,6.2,East,6.9,-,N/A,,Overcast,80,2013-01-16 00:20:00
9:50 PM,28.4,15.8,59,29.00,6.2,East,3.5,-,N/A,,Overcast,100,2013-01-16 00:50:00
10:20 PM,26.6,15.8,64,29.00,6.2,NE,1.2,-,N/A,,Overcast,50,2013-01-16 01:20:00
10:50 PM,28.4,14.0,55,29.00,6.2,East,3.5,-,N/A,,Overcast,100,2013-01-16 01:50:00
11:20 PM,28.4,14.0,55,28.97,6.2,East,9.2,-,N/A,,Overcast,80,2013-01-16 02:20:00
11:50 PM,30.2,14.0,51,28.97,6.2,East,8.1,-,N/A,,Overcast,80,2013-01-16 02:50:00